Temperature
20 19 19 19 19 19 19 18 18 18 18 18 18 17 17 17 17 17 17 17 16 16 16 16 16 16 16 15 15 15 15 15 15 15 14 14 14 14 14 14 14 13 13
20 20 19 19 19 19 18 18 18 18 18 18 17 17 17 17 17 17 16 16 16 16 16 16 16 16 16 15 15 15 15 14 14 14 14 14 13 13 13 13 13 13 13
20 20 19 19 19 19 18 18 18 18 18 17 17 17 17 17 16 16 16 16 16 16 15 15 15 15 15 15 15 14 14 14 14 14 14 13 13 13 13 13 12 12 12
20 19 19 19 19 19 18 18 18 18 18 17 17 17 17 16 16 16 16 16 16 15 15 15 15 15 15 15 14 14 14 14 14 14 13 13 13 13 12 12 12 12 12
19 19 19 19 19 18 18 18 18 18 17 17 17 17 17 16 16 16 15 15 15 15 15 15 15 15 15 14 14 14 14 14 14 13 13 13 12 12 12 12 12 12 11
19 19 19 19 19 18 18 18 18 18 17 17 17 16 16 16 16 16 15 15 15 15 15 14 14 14 14 14 14 14 14 13 13 13 13 12 12 12 12 12 12 11 11
19 19 19 18 18 18 18 17 17 17 17 17 16 16 16 16 16 15 15 15 15 14 14 14 13 14 14 14 14 14 13 13 13 13 12 12 12 12 12 11 11 11 11
19 19 18 18 18 17 17 17 17 17 17 16 16 16 16 16 15 15 15 14 14 14 14 14 14 14 13 13 13 13 13 13 13 12 12 12 12 12 11 11 11 11 11
18 18 18 18 17 17 17 17 17 17 16 16 16 16 15 15 15 15 14 14 14 14 13 13 13 13 13 13 13 12 12 12 12 12 12 12 12 11 11 11 11 11 11
18 18 18 18 17 17 17 17 16 16 16 16 15 15 15 15 15 15 14 13 13 13 13 13 13 13 13 13 12 12 12 12 11 11 11 11 11 11 11 11 10 10 10
18 18 18 17 17 17 17 16 16 16 15 15 15 15 14 14 14 14 14 13 13 13 13 13 13 13 13 12 12 12 12 11 11 11 11 11 11 10 10 10 10 10 10
17 17 17 17 17 16 16 16 15 15 15 15 14 14 14 14 14 14 14 13 13 12 12 12 12 12 12 12 12 12 11 11 11 11 11 11 10 10 10 10 10 10 9
16 16 16 16 16 16 16 15 15 15 15 15 14 14 14 13 13 13 13 13 13 12 12 12 12 12 12 11 11 11 11 11 11 11 11 10 10 10 10 10 10 9 9
16 16 16 16 16 15 15 15 15 15 15 14 14 14 13 13 13 12 12 12 12 12 12 12 12 11 11 11 11 11 10 10 10 10 10 10 10 10 10 10 10 9 9
15 15 15 15 15 15 15 14 14 14 14 14 14 13 13 13 13 12 12 12 12 11 11 11 11 11 11 10 10 10 10 10 10 10 10 10 10 10 9 9 9 9 9
15 14 14 14 14 14 14 14 14 14 13 13 13 13 13 13 12 12 12 12 11 11 11 11 10 10 10 10 10 10 10 10 9 9 9 9 9 9 9 9 9 9 9
14 14 14 14 14 14 14 14 13 13 13 13 13 13 12 12 12 12 11 11 11 11 10 10 10 10 10 10 10 10 9 9 9 9 9 9 9 9 9 9 9 9 9
14 14 14 14 14 13 13 13 13 13 12 12 12 12 12 12 11 11 11 10 10 10 10 10 10 10 9 9 9 9 9 9 9 9 9 9 9 9 9 9 8 8 8
13 13 13 13 13 13 13 13 13 12 12 12 12 11 11 11 11 10 10 10 10 10 10 9 9 9 9 9 9 8 8 8 8 8 8 8 8 8 8 8 8 8 8
13 13 13 13 13 12 12 12 12 12 12 11 11 11 11 10 10 10 9 9 9 9 9 9 9 9 8 8 8 8 8 8 8 8 8 8 8 8 8 8 8 8 8
12 12 12 12 12 12 12 12 12 12 11 11 11 11 10 10 10 10 9 9 9 9 8 8 8 8 8 8 8 8 8 8 7 7 7 7 7 7 7 7 7 7 7
12 12 12 12 12 12 12 11 11 11 11 11 10 10 10 10 9 9 9 9 9 8 8 8 8 8 8 8 8 7 7 7 7 7 7 7 7 7 7 7 7 7 7
12 12 12 11 11 11 11 11 11 11 10 10 10 10 9 9 9 9 8 8 8 8 8 8 8 7 7 7 7 7 7 7 7 6 6 6 6 6 6 6 6 6 6
11 11 11 11 11 11 11 11 10 10 10 10 9 9 9 9 8 8 8 8 8 8 7 7 7 7 7 7 7 6 6 6 6 6 6 6 6 6 6 6 6 6 6
11 11 11 11 11 10 10 10 10 10 10 9 9 9 9 8 8 8 8 8 7 7 7 7 7 7 7 6 6 6 6 6 6 6 5 5 5 5 5 5 6 6 5
11 10 10 10 10 10 10 10 9 9 9 9 9 8 8 8 8 8 8 7 7 7 7 7 6 6 6 6 6 6 6 6 6 5 5 5 5 5 5 5 5 5 5
Wind_Speed
10 9 9 9 8 8 7 6 6 5 5 5 4 4 4 3 3 3 3 3 3 3 3 4 4 5 4 4 5 5 5 5 5 4 2 1 1 1 2 2 2 2 3
9 9 9 9 8 8 7 6 5 5 5 5 4 4 4 3 3 3 3 3 3 4 4 4 4 3 4 4 4 5 5 5 5 4 3 2 2 2 2 2 2 2 2
8 9 8 9 9 8 7 7 6 6 5 5 4 4 4 3 3 3 3 3 3 3 4 3 3 3 4 3 4 4 4 4 4 4 3 2 2 2 2 2 2 1 2
8 9 9 8 8 8 7 7 7 6 6 5 4 4 4 3 3 3 3 3 3 3 3 3 3 3 4 4 4 4 4 4 3 4 3 3 3 3 3 3 2 2 1
8 8 9 8 7 7 7 6 6 6 6 5 5 4 4 3 3 3 3 3 2 2 2 2 2 1 2 3 3 3 3 4 4 4 4 3 3 3 3 3 3 2 1
8 8 8 8 8 7 7 6 6 6 5 5 5 4 4 3 2 0 3 2 2 2 2 1 1 1 1 1 1 2 3 4 4 3 4 4 4 4 3 3 3 2 1
8 7 8 8 8 8 7 7 6 6 6 5 5 4 4 3 3 2 2 2 1 1 1 2 2 1 1 1 2 3 2 1 2 3 3 3 3 3 4 4 3 3 2
6 7 7 8 8 7 7 6 6 5 5 5 5 5 4 4 4 2 3 2 1 1 1 2 2 1 1 2 1 1 1 1 2 2 2 2 2 1 3 4 3 2 1
6 6 7 7 7 8 7 7 6 6 5 5 5 5 5 4 4 3 4 3 2 2 1 1 2 1 1 2 1 1 1 1 2 3 2 2 1 3 3 2 2 2 2
7 6 6 6 7 8 8 7 6 6 6 5 5 4 4 3 4 3 4 3 2 2 2 2 1 1 1 1 1 2 2 1 2 3 3 2 2 3 5 3 3 3 2
7 7 7 7 7 8 8 7 7 6 5 5 5 4 3 3 4 3 2 3 2 2 2 2 2 4 2 1 2 1 1 2 2 2 2 2 2 2 2 2 2 3 3
7 7 7 7 7 7 8 7 7 6 6 6 5 4 3 3 2 3 2 2 3 2 2 1 2 4 4 2 1 1 1 3 2 2 2 2 1 1 1 2 2 3 3
6 7 6 6 6 7 8 8 7 7 6 6 5 5 4 3 4 5 5 3 3 2 1 2 2 3 4 4 4 3 3 2 2 2 2 2 1 1 2 2 2 3 3
7 6 6 6 6 6 6 6 6 6 6 5 5 4 4 4 3 4 4 4 5 4 3 4 6 5 4 2 3 4 3 1 2 2 2 1 2 2 2 2 2 2 2
6 5 5 5 7 6 4 3 4 3 3 4 4 4 4 4 2 1 2 2 2 2 3 3 3 3 3 3 3 2 2 2 2 2 2 2 3 3 3 3 3 3 4
6 5 4 5 6 6 6 4 4 3 4 3 3 0 2 4 5 3 1 1 1 1 3 3 3 3 3 3 3 3 3 3 3 3 4 4 4 4 4 4 4 5 5
6 6 5 5 6 6 6 6 5 4 4 4 3 2 2 4 5 4 3 2 3 4 4 3 3 3 3 3 3 3 3 3 3 4 4 4 4 5 5 5 5 5 5
5 5 5 5 5 6 6 5 5 5 5 3 4 6 5 5 5 5 5 5 3 4 4 3 3 3 3 3 3 3 3 3 3 4 5 5 5 5 6 6 6 6 6
4 4 4 5 5 5 5 4 4 4 4 3 3 4 5 5 6 5 5 3 3 3 3 3 3 3 3 3 3 3 4 3 4 4 5 5 5 6 6 6 7 7 8
3 4 4 5 5 5 4 4 4 4 3 3 3 3 4 4 3 4 3 3 3 3 3 3 3 3 3 3 3 4 4 4 5 5 5 5 5 6 7 7 7 7 7
2 4 5 4 4 4 4 4 3 3 3 3 3 3 2 4 3 3 3 3 2 2 2 2 2 3 3 3 3 4 5 4 4 4 4 5 5 6 6 7 7 7 7
2 3 3 3 4 3 3 3 3 3 3 3 3 3 4 3 2 2 2 2 1 1 1 1 2 2 2 2 3 3 4 5 4 4 5 5 5 6 7 7 6 6 6
2 3 3 4 4 4 3 3 3 2 2 2 2 3 3 3 2 2 1 1 1 1 1 1 1 1 1 1 2 3 4 4 5 5 5 5 5 6 6 6 7 7 7
3 3 3 3 3 3 3 2 2 2 2 2 2 1 2 2 2 1 1 1 1 1 1 1 0 0 1 1 2 2 2 4 5 5 5 6 6 5 5 6 6 6 7
3 3 3 3 3 2 2 2 1 1 1 1 1 1 1 1 1 1 2 2 2 1 1 1 1 1 0 1 1 2 3 4 4 5 5 4 5 5 5 6 6 6 6
3 3 3 3 2 1 1 1 1 1 1 1 1 1 1 1 1 1 1 1 1 1 1 1 1 1 0 0 2 3 3 2 3 6 6 5 4 4 5 5 6 6 6
Wind_Direction
193 194 195 195 197 199 202 206 208 207 203 205 204 204 204 208 212 217 232 234 239 247 255 259 262 270 266 260 254 250 250 249 252 254 248 206 200 214 153 157 160 153 122
187 189 191 192 194 196 195 196 194 193 194 193 195 197 202 201 203 216 231 239 243 253 259 265 269 266 262 262 260 253 250 246 242 244 240 227 219 201 175 188 160 144 123
183 184 183 187 189 192 190 186 184 184 186 187 186 190 195 197 203 217 231 242 251 258 262 263 265 266 267 266 262 257 252 249 241 232 229 216 205 181 179 179 155 160 156
182 182 182 186 188 186 182 180 179 178 179 181 180 181 191 197 203 216 224 235 242 249 257 259 262 266 272 269 258 254 252 250 234 226 221 209 193 180 192 190 184 185 193
182 183 181 180 180 179 175 175 173 175 176 173 174 179 188 198 209 221 224 229 238 244 249 256 263 290 316 290 274 262 248 243 230 223 221 212 199 191 208 206 206 194 200
183 182 175 173 173 177 179 176 171 171 174 176 179 182 188 192 111 92 262 225 240 256 263 259 234 230 250 227 277 283 269 243 239 229 225 223 218 212 209 210 201 202 215
184 182 175 174 175 177 177 174 175 174 176 183 187 189 189 159 127 149 286 251 225 255 274 275 275 291 256 274 216 216 228 231 248 246 243 242 227 215 209 206 212 224 249
180 181 181 178 177 176 176 176 176 178 183 186 189 191 191 167 147 169 251 230 222 203 233 254 260 279 338 306 255 210 195 182 217 233 235 254 251 218 212 218 221 218 214
181 181 184 182 180 177 178 182 178 177 179 183 190 193 189 172 159 188 243 215 212 217 235 268 267 217 28 313 220 173 148 135 129 102 71 47 76 160 183 192 187 198 227
186 180 178 179 179 183 180 182 181 179 180 182 181 185 188 185 160 181 248 221 207 206 195 185 91 80 78 324 198 180 175 172 141 123 124 131 141 155 184 213 213 219 241
181 175 177 178 183 182 177 177 177 178 176 178 177 182 187 182 159 166 248 238 219 212 210 192 126 125 137 187 255 215 229 238 181 158 146 143 147 156 182 208 245 255 260
176 176 175 179 184 176 172 171 175 175 175 179 184 190 186 177 169 166 181 259 295 215 221 189 117 134 153 178 204 112 241 246 194 171 167 163 169 179 184 200 228 267 291
176 175 172 171 173 174 174 172 176 180 185 184 188 193 192 183 167 162 174 198 246 233 187 93 116 161 180 179 164 190 216 210 205 201 199 208 212 195 198 196 204 220 234
181 175 169 167 168 169 172 175 180 183 186 183 188 197 192 186 187 182 186 188 195 207 202 173 182 193 205 186 182 196 213 216 238 235 234 221 212 197 202 210 217 216 230
176 168 170 173 161 160 159 156 179 173 184 192 195 196 195 199 171 108 217 209 218 202 198 193 190 179 187 186 193 202 215 215 227 246 249 238 226 227 226 219 229 237 242
174 168 172 169 161 159 156 144 74 98 99 88 54 78 144 104 112 123 132 50 44 229 216 203 204 207 211 207 208 211 219 226 235 245 250 251 247 244 242 239 241 243 247
180 172 173 172 167 167 170 171 163 139 126 140 152 143 137 131 138 155 171 187 204 209 216 220 222 224 229 233 235 236 234 230 240 247 249 250 251 252 250 247 245 249 254
177 165 172 174 175 175 175 176 173 169 165 162 165 164 168 166 168 177 188 195 192 205 230 237 238 239 241 245 248 250 252 244 240 250 253 253 254 256 255 252 248 251 256
165 168 178 176 172 167 164 165 169 172 168 155 145 148 164 169 166 171 186 207 223 219 225 236 244 246 251 257 261 260 256 254 256 258 260 263 261 259 258 258 255 246 250
146 140 170 174 166 164 165 164 165 169 167 166 167 156 158 170 172 168 192 225 237 237 239 243 253 261 261 264 261 260 256 254 256 257 267 272 270 266 265 264 262 259 255
144 146 161 168 160 160 161 161 161 166 170 174 171 149 176 186 188 189 197 213 228 231 233 244 250 256 261 263 263 260 260 264 267 270 271 270 271 269 267 265 263 262 264
164 169 164 150 145 145 145 154 158 168 173 177 170 152 171 201 195 191 195 198 204 209 219 237 246 253 265 262 264 268 266 267 269 271 271 272 274 271 267 266 267 269 270
160 155 149 144 145 145 160 158 161 167 170 171 164 161 169 183 190 187 185 194 189 187 193 229 251 273 296 290 282 274 275 278 276 272 273 274 273 270 269 270 272 274 272
145 145 142 141 144 152 161 163 168 164 159 152 158 169 168 172 186 176 179 196 189 191 198 205 206 198 336 326 310 318 338 329 311 288 277 274 273 274 278 280 278 280 279
142 140 136 136 143 154 159 156 154 148 149 145 152 162 158 156 162 163 166 174 175 169 181 198 187 164 122 319 334 12 20 0 336 316 290 277 277 281 284 283 284 288 285
113 113 113 114 118 125 133 126 123 122 132 141 142 140 143 164 183 178 170 171 171 164 186 184 144 125 125 349 25 28 30 6 330 312 294 285 281 284 292 287 286 284 283
Height
1530 1532 1534 1535 1537 1538 1539 1540 1541 1542 1543 1543 1544 1545 1545 1546 1546 1546 1546 1546 1545 1545 1544 1543 1542 1541 1541 1541 1541 1541 1541 1541 1541 1541 1541 1541 1540 1539 1539 1539 1538 1538 1537
1528 1529 1531 1532 1534 1535 1536 1537 1538 1539 1540 1541 1541 1542 1543 1543 1544 1544 1543 1543 1543 1542 1541 1541 1540 1539 1538 1538 1538 1537 1538 1538 1538 1538 1538 1538 1537 1537 1536 1536 1536 1536 1535
1525 1527 1528 1530 1531 1533 1534 1535 1536 1537 1538 1539 1539 1540 1541 1541 1542 1541 1541 1541 1540 1540 1539 1538 1537 1536 1535 1535 1534 1534 1534 1535 1535 1535 1535 1535 1535 1535 1534 1534 1534 1533 1533
1522 1524 1525 1527 1529 1530 1531 1533 1534 1535 1536 1537 1537 1538 1538 1539 1539 1539 1539 1538 1537 1537 1536 1535 1534 1534 1533 1532 1532 1531 1531 1531 1532 1532 1532 1532 1532 1532 1532 1532 1531 1531 1531
1520 1521 1523 1525 1527 1528 1529 1531 1532 1532 1534 1535 1535 1536 1536 1536 1536 1536 1536 1536 1535 1534 1534 1533 1532 1531 1530 1530 1529 1529 1529 1528 1529 1529 1529 1529 1529 1529 1529 1529 1529 1529 1529
1517 1519 1520 1523 1524 1526 1527 1529 1530 1530 1531 1532 1533 1533 1534 1534 1533 1533 1534 1533 1532 1532 1531 1530 1530 1529 1528 1527 1527 1526 1526 1526 1526 1526 1526 1526 1526 1527 1527 1527 1527 1527 1527
1516 1517 1518 1520 1522 1523 1525 1527 1528 1528 1529 1530 1531 1531 1531 1531 1531 1531 1531 1531 1529 1529 1528 1528 1527 1526 1526 1525 1524 1523 1523 1523 1523 1523 1524 1523 1524 1524 1524 1524 1524 1525 1525
1513 1515 1516 1518 1520 1521 1523 1524 1525 1526 1527 1528 1529 1529 1529 1528 1528 1528 1528 1528 1526 1525 1525 1524 1524 1523 1523 1523 1522 1522 1521 1521 1521 1521 1521 1521 1521 1521 1521 1522 1522 1522 1522
1510 1511 1513 1515 1517 1518 1520 1521 1522 1523 1524 1525 1526 1526 1526 1526 1525 1525 1525 1525 1524 1523 1522 1522 1521 1521 1520 1520 1520 1520 1520 1519 1519 1519 1519 1519 1519 1519 1519 1520 1520 1521 1521
1506 1508 1510 1512 1514 1516 1516 1518 1519 1520 1521 1522 1523 1523 1523 1523 1523 1522 1522 1523 1522 1521 1520 1520 1519 1518 1518 1518 1518 1518 1518 1518 1518 1518 1518 1517 1517 1517 1518 1518 1519 1519 1519
1503 1505 1506 1508 1509 1511 1512 1514 1516 1517 1518 1519 1520 1520 1520 1520 1520 1520 1520 1520 1520 1520 1519 1518 1517 1516 1516 1516 1516 1516 1516 1517 1517 1517 1517 1517 1517 1516 1516 1517 1517 1517 1518
1499 1501 1502 1504 1506 1507 1509 1510 1513 1514 1515 1516 1517 1518 1518 1517 1517 1517 1517 1517 1517 1517 1516 1516 1515 1514 1514 1514 1514 1514 1515 1515 1516 1516 1516 1516 1516 1516 1515 1515 1515 1515 1515
1496 1497 1498 1500 1501 1503 1505 1506 1508 1510 1511 1512 1514 1515 1515 1515 1514 1514 1515 1515 1514 1514 1514 1513 1513 1512 1512 1512 1512 1512 1513 1514 1515 1515 1515 1514 1514 1514 1514 1513 1513 1513 1512
1492 1493 1494 1495 1497 1499 1501 1503 1505 1506 1507 1508 1510 1510 1511 1511 1511 1511 1512 1512 1512 1512 1512 1511 1511 1511 1511 1511 1511 1511 1512 1512 1513 1513 1513 1513 1513 1512 1512 1511 1511 1511 1511
1488 1489 1490 1491 1492 1495 1497 1499 1502 1503 1504 1505 1506 1507 1508 1508 1508 1509 1509 1510 1510 1510 1510 1510 1510 1510 1509 1509 1510 1510 1510 1510 1510 1511 1511 1511 1510 1510 1510 1509 1509 1509 1508
1484 1485 1487 1488 1489 1491 1494 1496 1498 1499 1500 1501 1503 1504 1504 1505 1505 1506 1506 1507 1507 1507 1508 1508 1508 1508 1508 1508 1508 1508 1508 1508 1508 1509 1509 1508 1508 1508 1507 1507 1507 1506 1505
1480 1482 1484 1485 1486 1488 1491 1492 1493 1495 1497 1498 1499 1500 1501 1501 1502 1503 1503 1504 1504 1505 1505 1506 1506 1506 1505 1506 1506 1506 1506 1505 1505 1506 1506 1505 1505 1504 1504 1504 1503 1503 1502
1477 1478 1481 1482 1484 1486 1488 1490 1491 1492 1494 1495 1496 1497 1498 1498 1499 1500 1500 1501 1502 1502 1503 1503 1503 1504 1503 1503 1503 1503 1503 1503 1503 1503 1502 1502 1501 1501 1501 1500 1500 1499 1499
1475 1477 1479 1480 1482 1483 1486 1488 1490 1491 1492 1493 1494 1495 1495 1496 1497 1497 1498 1499 1499 1500 1500 1500 1500 1500 1500 1500 1500 1500 1500 1500 1499 1499 1498 1498 1497 1497 1496 1496 1496 1495 1494
1474 1475 1477 1479 1481 1482 1484 1485 1487 1489 1490 1491 1491 1492 1493 1494 1494 1494 1495 1496 1496 1496 1496 1496 1497 1497 1497 1497 1496 1496 1496 1496 1495 1495 1495 1494 1494 1493 1492 1492 1491 1491 1490
1473 1475 1476 1478 1480 1481 1483 1484 1485 1487 1488 1488 1489 1489 1490 1491 1492 1492 1492 1492 1492 1492 1492 1493 1493 1493 1493 1492 1492 1492 1492 1492 1491 1491 1490 1490 1489 1489 1488 1488 1487 1486 1486
1473 1475 1476 1477 1478 1480 1481 1483 1484 1485 1486 1486 1486 1487 1487 1488 1489 1489 1489 1489 1489 1489 1489 1489 1489 1489 1489 1489 1488 1488 1488 1487 1487 1486 1485 1485 1484 1484 1484 1483 1482 1482 1481
1473 1475 1476 1477 1478 1479 1481 1482 1483 1484 1484 1484 1485 1485 1485 1485 1486 1486 1487 1487 1486 1486 1486 1486 1486 1486 1486 1485 1484 1484 1483 1483 1482 1481 1480 1480 1480 1479 1479 1478 1478 1477 1477
1473 1474 1475 1476 1477 1479 1480 1481 1482 1482 1482 1482 1483 1483 1484 1484 1484 1484 1484 1484 1484 1484 1483 1483 1483 1482 1482 1481 1481 1480 1479 1478 1477 1476 1475 1476 1476 1475 1475 1474 1474 1473 1473
1473 1474 1475 1476 1477 1478 1479 1479 1480 1480 1480 1481 1481 1482 1482 1482 1482 1482 1482 1482 1482 1482 1481 1481 1481 1480 1479 1479 1478 1477 1476 1474 1473 1473 1472 1472 1472 1472 1471 1470 1470 1469 1469
1473 1473 1474 1475 1476 1477 1478 1478 1478 1479 1479 1480 1480 1480 1480 1480 1480 1480 1480 1480 1480 1480 1479 1479 1478 1477 1476 1476 1475 1474 1473 1472 1471 1470 1469 1469 1469 1469 1468 1467 1467 1466 1465